Total_Precipitation_Accumulation
2.23 2.01 3.41 3.77 3.37 3.01 2.90 2.91 2.89 2.83 2.87 2.85 2.65 2.38 2.15 2.01 1.83 1.66 1.50 1.47 1.54 1.59 1.66 1.66 1.64 1.48 1.38 1.31 1.28 1.39 1.58 1.76 1.89 1.89 1.94 2.09 2.07 2.11 2.33 2.70 2.91 3.18 2.77
1.82 1.93 3.25 3.56 3.13 2.71 2.61 2.70 2.85 2.86 2.87 2.72 2.59 2.42 2.24 1.99 1.78 1.64 1.46 1.42 1.43 1.43 1.39 1.49 1.62 1.53 1.45 1.49 1.53 1.55 1.61 1.64 1.77 1.93 2.19 2.28 2.14 2.16 2.28 2.69 2.76 3.04 2.82
1.72 1.82 2.63 3.32 2.98 2.61 2.49 2.63 2.95 2.85 2.79 2.61 2.52 2.38 2.21 1.90 1.75 1.72 1.53 1.47 1.51 1.41 1.30 1.34 1.53 1.47 1.46 1.51 1.55 1.61 1.60 1.71 1.87 2.06 2.59 3.26 2.49 2.21 2.27 2.49 2.61 2.49 2.69
1.55 1.63 2.23 3.23 2.87 2.71 2.66 2.74 2.82 2.78 2.84 2.66 2.51 2.30 2.10 1.88 1.87 1.88 1.88 1.86 1.71 1.49 1.38 1.35 1.53 1.45 1.34 1.44 1.61 1.60 1.57 1.74 1.94 2.06 2.49 3.15 2.94 2.35 2.43 2.60 2.73 2.51 2.57
1.49 1.61 2.51 3.28 2.92 2.74 2.71 2.73 2.67 2.78 2.89 2.69 2.43 2.16 1.94 1.94 2.20 2.23 2.11 1.99 1.75 1.56 1.41 1.37 1.44 1.45 1.36 1.33 1.45 1.49 1.54 1.69 1.90 1.79 2.23 3.03 3.39 2.92 2.40 2.48 2.64 2.58 2.57
1.69 1.71 2.52 3.29 3.07 2.84 2.74 2.66 2.63 2.73 2.89 2.82 2.48 2.16 2.01 2.01 2.08 2.11 2.02 1.88 1.69 1.55 1.42 1.47 1.46 1.40 1.38 1.31 1.35 1.43 1.49 1.60 1.50 1.67 2.26 2.81 3.23 2.87 2.30 2.24 2.48 2.58 2.62
1.64 1.70 2.19 2.97 2.95 2.76 2.66 2.61 2.74 2.79 2.79 2.78 2.54 2.22 2.10 2.06 2.01 2.04 1.95 1.82 1.56 1.49 1.43 1.52 1.51 1.44 1.34 1.32 1.31 1.31 1.44 1.29 1.16 1.59 2.11 2.66 2.84 2.73 2.44 2.43 2.61 2.61 2.78
1.64 1.61 1.92 2.56 2.82 2.73 2.70 2.64 2.73 2.79 2.75 2.61 2.29 2.11 1.99 2.02 2.03 2.02 1.92 1.82 1.57 1.54 1.50 1.44 1.45 1.42 1.37 1.38 1.38 1.37 1.38 1.08 0.91 1.28 1.81 2.54 2.98 2.89 2.60 2.47 2.59 2.67 2.86
1.84 1.83 1.97 2.30 2.53 2.90 2.96 2.80 2.80 2.85 2.76 2.54 2.18 2.08 1.98 1.95 1.83 1.83 1.82 1.72 1.59 1.57 1.45 1.36 1.35 1.36 1.43 1.45 1.43 1.41 1.32 1.03 0.98 1.30 1.37 2.17 2.80 2.85 2.54 2.46 2.51 2.65 2.88
1.90 1.90 1.85 1.99 2.12 2.42 2.65 2.88 2.99 2.92 2.81 2.62 2.23 2.07 2.00 1.93 1.77 1.70 1.57 1.59 1.57 1.60 1.59 1.45 1.39 1.40 1.49 1.52 1.47 1.37 1.26 0.99 0.99 1.09 1.49 2.06 2.89 2.93 2.60 2.56 2.57 2.63 2.75
1.75 1.66 1.60 1.70 1.85 2.07 2.33 2.54 2.85 2.81 2.72 2.52 2.16 2.09 2.04 1.84 1.57 1.52 1.44 1.76 1.68 1.68 1.66 1.63 1.61 1.56 1.51 1.43 1.43 1.24 0.96 0.93 1.14 1.29 1.70 2.49 3.21 3.21 2.91 2.73 2.71 2.63 2.58
1.74 1.59 1.42 1.45 1.59 1.72 1.88 2.42 2.53 2.20 2.04 1.87 1.98 1.94 1.87 1.84 1.64 1.25 1.41 1.83 1.92 1.88 1.69 1.61 1.68 1.45 1.14 1.02 1.07 0.94 0.80 0.93 1.13 1.26 1.69 2.79 3.35 3.34 2.96 2.73 2.84 2.81 2.64
1.51 1.43 1.31 1.31 1.29 1.30 1.50 1.87 2.13 2.15 2.07 1.86 1.74 1.70 1.76 1.69 1.49 1.28 1.37 1.49 1.48 1.40 1.28 1.28 1.20 0.98 0.89 0.96 0.96 0.81 0.76 0.88 1.05 1.19 1.75 2.81 3.46 3.43 3.00 2.79 2.81 2.77 2.66
1.30 1.25 1.18 1.11 1.08 1.06 1.17 1.28 1.41 1.65 1.74 1.69 1.47 1.31 1.38 1.52 1.45 1.27 1.28 1.31 1.32 1.29 1.35 1.33 1.22 1.08 1.03 1.02 0.95 0.93 0.94 1.02 1.07 1.19 1.70 2.60 3.66 3.81 3.59 3.41 3.16 2.98 2.78
1.27 1.23 1.12 0.98 0.98 1.01 1.11 1.20 1.13 1.33 1.49 1.54 1.49 1.28 1.21 1.27 1.31 1.25 1.11 1.20 1.23 1.23 1.22 1.22 1.17 1.18 1.26 1.22 1.15 1.14 1.16 1.15 1.09 1.10 1.40 2.10 3.27 4.14 4.32 4.22 3.63 3.22 2.99
1.14 1.19 1.10 1.03 1.07 1.04 1.00 1.06 1.07 1.12 1.24 1.25 1.37 1.31 1.26 1.24 1.23 1.22 1.18 1.24 1.30 1.30 1.24 1.16 1.10 1.23 1.27 1.29 1.26 1.18 1.14 1.05 1.06 1.19 1.42 1.68 2.05 2.78 3.82 4.20 3.92 3.59 3.35
1.02 1.00 0.95 0.94 1.04 1.04 1.03 1.05 1.06 1.18 1.21 1.20 1.23 1.19 1.28 1.24 1.22 1.24 1.25 1.27 1.27 1.33 1.36 1.33 1.27 1.33 1.34 1.43 1.45 1.26 1.18 1.12 1.09 1.16 1.31 1.51 1.42 1.58 2.49 3.47 3.85 3.65 3.52
0.89 0.88 0.87 0.76 0.88 1.02 1.11 1.17 1.26 1.32 1.33 1.33 1.24 1.15 1.14 1.13 1.15 1.24 1.25 1.28 1.35 1.33 1.38 1.47 1.47 1.52 1.54 1.58 1.58 1.38 1.19 1.28 1.18 1.17 1.32 1.39 1.41 1.38 1.65 2.12 2.60 2.98 3.44
0.90 0.90 0.93 0.86 0.91 1.03 1.09 1.24 1.35 1.45 1.55 1.61 1.51 1.47 1.40 1.27 1.29 1.41 1.46 1.44 1.46 1.51 1.52 1.45 1.47 1.59 1.70 1.68 1.50 1.43 1.33 1.34 1.33 1.30 1.48 1.46 1.46 1.46 1.52 1.47 1.59 1.97 2.68
0.96 0.94 0.99 1.05 1.08 1.21 1.38 1.61 1.84 1.96 2.09 2.18 2.09 1.98 1.80 1.57 1.53 1.71 1.75 1.62 1.65 1.77 1.87 1.74 1.83 1.73 1.65 1.72 1.52 1.47 1.47 1.41 1.37 1.45 1.52 1.58 1.68 1.52 1.50 1.44 1.41 1.36 1.77
0.99 0.96 0.94 1.00 1.10 1.23 1.46 1.77 2.28 2.55 2.62 2.49 2.43 2.33 2.12 1.89 1.87 2.06 2.09 2.07 2.07 2.09 2.07 1.99 2.18 2.13 1.85 1.74 1.95 1.93 1.74 1.54 1.43 1.41 1.46 1.69 1.80 1.70 1.71 1.63 1.56 1.48 1.38
0.84 0.88 1.02 1.07 1.12 1.24 1.50 1.80 2.18 2.61 2.67 2.60 2.48 2.38 2.27 2.14 2.10 2.14 2.37 2.49 2.45 2.65 2.67 2.44 2.55 2.57 2.20 1.97 2.28 2.62 2.31 2.06 1.59 1.45 1.56 1.62 1.71 1.81 1.85 1.69 1.55 1.50 1.50
0.76 0.73 0.86 1.03 1.23 1.51 1.79 2.09 2.28 2.57 2.67 2.65 2.51 2.43 2.44 2.38 2.25 2.32 2.44 2.61 2.62 2.71 2.92 3.04 2.92 2.99 2.78 2.35 2.24 2.62 2.58 2.39 2.13 1.74 1.63 1.69 1.81 1.87 1.92 1.92 1.73 1.52 1.50
0.69 0.68 0.77 0.92 1.21 1.60 1.94 2.17 2.43 2.80 2.90 2.74 2.64 2.53 2.52 2.53 2.50 2.61 2.62 2.70 2.72 2.73 2.85 3.01 2.99 3.16 3.28 2.87 2.50 2.25 2.10 2.12 2.30 2.12 1.82 1.76 1.88 1.87 1.87 1.91 1.95 1.83 1.67
0.73 0.76 0.84 1.04 1.32 1.65 1.86 2.12 2.46 2.66 2.77 2.83 2.71 2.63 2.61 2.63 2.63 2.68 2.75 2.87 2.86 2.84 2.78 2.99 3.09 3.20 3.15 3.11 2.97 2.79 2.62 2.36 2.01 2.17 2.18 1.98 1.86 1.74 1.77 1.91 2.09 2.05 1.89
0.78 0.90 1.01 1.18 1.38 1.63 1.85 2.11 2.26 2.45 2.60 2.66 2.68 2.61 2.55 2.59 2.68 2.56 2.48 2.67 2.73 2.75 2.71 2.86 3.01 3.17 3.16 3.20 3.14 2.85 2.86 2.78 2.41 2.36 2.19 2.02 2.05 1.85 1.74 1.81 1.87 1.89 1.89